Погода в Сухане

Погода в Сухане : погода сейчас, прогноз погоды и архив. Всё, что Вы хотите узнать о погоде в Сухане!

Поиск расширенной информации на нашем сайте:

Другие новости

Новости СМИ2

Главная страница сайта

Новости сайта

02.10.2013

Напоминаем, что на нашем новом сайте вы можете получить высокодетализированные прогнозы погоды по пунктам России, СНГ и мира (включающие важные для авиации метеовеличины, такие как направление и скорость ветра, видимость, явления погоды, количество и форма облачности, нижняя и верхняя граница облачности), а также ознакомиться с разнообразными материалами по авиационной метеорологии и подборкой полезных ссылок на эту тему.

Сайт Метеоцентр.Азия посвящён разработке технологий оптимизации авиаметеорологического обслуживания, включая проектирование и перспективное создание нескольких автоматизированных авиаметеорологических систем:
- система выпуска высокодетальных прогностических карт явлений погоды для нижнего воздушного пространства по России и ближнему зарубежью;
- система верификации прогнозов TAF (выпускаемых синоптиками официальных АМСГ РФ и ближнего зарубежья) и AUTOTAF (выпускаемых сайтом Метеоцентр.Азия) - выявление ошибок, онлайн-сопоставление с фактической погодой METAR, автоматическое внесение коррективов в прогнозы при резком отклонении фактической погоды от прогноза, подсчёт оправдываемости прогнозов по элементам и в целом;
- система обработки, анализа и отображения авиаметеорологической информации для применения провайдерами метеорологической информации.

Рекомендуем: Читайте продажа моторных яхт услуги.

Погода в Сухане - сегодня

Время (UTC), дата Ветер
(°,м/с) 
Видим.   Явления Облачность Т
(°С)
Тd
(°С)
f(%) Тe
(°С)
Pmin
(гПа)
dP
(гПа)
Po
(мм)
O2
(г/м3)
Тmin Tmax R s Состояние
почвы
15 25.04.17 180 (Ю) 4{10}  20000 м    10/0 средняя 
[Ac As]
+3.7 -9.7 37 +2  1011.9  -3  752  300           
18 25.04.17 150 (ЮВ) 4{10}  20000 м    10/0 средняя 
[Ac As]
+2.7 -7.1 48 +1  1008.2  -3.6  749  300           
21 25.04.17 тихо () {10}  10 км  слаб. снег  10/3 1000 м средняя 
[Sc|Ac As]
-0.4 -2.5 86 -0  1005.3  -3  747  302           
00 26.04.17 160 (Ю) 4000 м  слаб. ливневой снег  10/8 600 м кучево-дожд., средняя 
[Cb cap|Ac As]
+0.8 -0.9 88 1004.7  -0.6  746  300  -2.5    33  равномерный
сухой снег
100% 
03 26.04.17 160 (Ю) 20000 м  в посл. час ливневой снег  10/10 600 м кучево-дожд. 
[Cb cap]
+2 -0.8 82 +3  1004.1  -0.5  746  298           
06 26.04.17 190 (Ю) 20000 м  {ливн. осадки}  10/10 1000 м 
[Sc]
+3.4 -1 73 +4  1005.3  0.9  747  297           
09 26.04.17 тихо ()   20000 м    10/10 1000 м 
[Sc]
+4.6 -0.2 71 +5  1005.7  0.4  747  296           
12 26.04.17 тихо ()   20000 м  слаб. ливневой дождь  10/10 600 м кучево-дожд. 
[Cb cap]
+3.2 +0 79 +3  1005.7  747  298    +4.8  0.3     
15 26.04.17 тихо ()   10 км  слаб. ливневой дождь  10/10 600 м кучево-дожд. 
[Cb cap]
+1.9 +0.8 92 +2  1005.3  -0.4  747  299           
18 26.04.17 тихо ()   20000 м  {ливн. осадки}  10/10 600 м кучево-дожд. 
[Cb cap]
+1.2 +0.4 94 +1  1004.6  -0.8  746  299           
21 26.04.17 тихо ()   20000 м  слаб. ливневой снег  10/10 600 м кучево-дожд. 
[Cb cap]
+0.8 +0.3 96 +1  1004.5  -0.1  746  300           
00 27.04.17 тихо ()   10 км  слаб. ливневой снег  10/10 600 м кучево-дожд. 
[Cb cap]
+1.8 +0.2 89 +2  1004.6  0.1  746  299  +0.8    31  равномерный
мокрый или
старый снег
100% 
03 27.04.17 020 (С) 20000 м  слаб. ливневой снег  10/10 600 м кучево-дожд. 
[Cb cap]
+0.9 -1.1 86 1004.9  0.3  746  300           
06 27.04.17 060 (СВ) 20000 м  слаб. ливневой снег  10/10 600 м кучево-дожд. 
[Cb cap]
+1.7 -2.4 74 +1  1005.5  0.6  747  299           
09 27.04.17 340 (С) 20000 м  слаб. ливневой снег  10/10 600 м кучево-дожд. 
[Cb cap]
+1 -2.9 75 1006.9  1.4  748  301           
12 27.04.17 040 (СВ) 20000 м  {ливн. осадки}  10/6 600 м средняя 
[Sc|Ac As]
+0.8 -1.3 86 1007.8  0.9  749  301    +1.9  0.3     
15 27.04.17 020 (С) 20000 м    10/8 600 м средняя 
[Sc|As op]
-0.9 -3.4 83 1007.8  749  303           
18 27.04.17 050 (СВ) 20000 м    10/6 600 м средняя 
[Sc|As op]
-3.1 -7 74 -3  1008.1  0.1  749  306           
21 27.04.17 360 (С) 20000 м  слаб. ливневой снег  10/10 600 м кучево-дожд. 
[Cb cap]
-4.7 -7.5 81 -8  1007.5  -0.6  748  308           
00 28.04.17 020 (С) 20000 м  {ливн. осадки}  10/1 600 м средняя, верхняя 
[Cu hum|As trans|Cs]
-5.5 -10.1 70 -9  1007.1  -0.4  748  309  -5.5    0.0  29  равномерный
мокрый или
старый снег
100% 
03 28.04.17 360 (С) 20000 м    10/3 600 м верхняя 
[Cu hum|Cs]
-4.1 -10 63 -8  1006.4  -0.7  747  307           
06 28.04.17 360 (С) 20000 м    8/3 600 м средняя, верхняя 
[Cu hum|Ac As|Cs]
-3.6 -10.6 58 -6  1006.5  0.1  748  306           
09 28.04.17 360 (С) 20000 м    8/1 600 м верхняя 
[Cu hum|Cs]
-3.6 -11.1 56 -7  1007.5  748  307           
15 28.04.17 360 (С) 20000 м    8/0 средняя, верхняя 
[Ac lent|Cs]
-9.3 -12.8 76 -12  1012.3  1.6  752  315           
03 29.04.17 030 (СВ) 20000 м    4/4 1000 м 
[Sc]
+8.6 -14 19 +9  1014.3  -0.7  753  295           
Время (UTC), дата Ветер
(°,м/с) 
Видим.   Явления Облачность Т
(°С)
Тd
(°С)
f(%) Тe
(°С)
Pmin
(гПа)
dP
(гПа)
Po
(мм)
O2
(г/м3)
Тmin Tmax R s Состояние
почвы

Для получения пояснительной информации подведите курсор к названию столбца.

ПОГОДА в Сухане - архив

Всё, что Вы хотите узнать о погоде в Сухане - удобно и подробно!

Выберите нужную дату (начиная с 1 января 2015* года) и нажмите кнопку "Найти".
Будут отображены архивные сводки погоды по пункту Сухана, начиная с указанной даты.


Отображать данные в формате CSV (для использования в таблицах Excel)


Внимание! Наш архив погоды предназначен исключительно для личного некоммерческого использования в познавательных целях. Если Вам необходимы официальные справки о состоянии погоды (для производственных, юридических, коммерческих и т.п. целей), обращайтесь в органы Росгидромета.

*Примечание: данная дата относится к архиву по метеостанциям СССР (Россия, СНГ, Балтия).
Архив по метеостанциям Зарубежной Европы и Азии (кроме Китая) хранится 10 дней, по другим регионам земного шара (Китай, Африка, Америка, Австралия, Океания) - 1 день.

Сухана - район местоположения метеостанции


Название, широта, долгота, высота метеостанции:
Сухана 68.62°ш. 118.33°д. 77 м над ур. моря [Российская Федерация]

Дополнительная информация

В oтличие oт бoльшинства пoгoдных сайтoв мы публикуем пoдрoбную метеoинфoрмацию в детальнoм прoфессиoнальнoм фoрмате.

Характеристики температуры и влажнoсти вoздуха измеряются на высoте 2 м в тени вдали oт зданий и деревьев.
Скoрoсть ветра измеряется на высoте 10 м (на урoвне рoста челoвека скoрoсть ветра ниже в 1.5-2 раза). Если метеoстанция нахoдится в гoрoде или в лесу, тo скoрoсть ветра занижена на 2-4 м/с пo сравнению с oткрытым местoм. Скoрoсть ветра над акватoриями крупных рек и oзёр, а также на вершинах хoлмoв на 2-5 м/с выше, чем в oбычных услoвиях.
Атмoсфернoе давление в разных тoчках местнoсти мoжет значительнo oтличаться oт давления на метеoстанции, в зависимoсти oт услoвий рельефа (при пoдъёме на 10 м давление пoнижается примернo на 1 мм рт.ст.).